SCP
0 0 0 0 1 1 1 1 1 1 1 1 1 1 1 1 1 2 1 1 1 1 1 0 0 0 0 0 0 0 0 1 1 1 1 0 0 1 1 1 1 1 1
0 0 0 0 1 1 1 1 1 1 1 1 1 1 1 1 1 2 1 1 1 1 1 0 0 0 0 0 0 0 0 0 0 0 0 0 0 1 1 1 1 1 1
0 0 0 0 1 1 1 1 1 1 1 1 1 1 1 1 1 2 1 1 1 1 1 1 1 0 0 0 0 0 0 0 0 0 0 0 0 0 1 1 1 1 1
0 0 0 0 1 1 1 1 1 1 1 1 1 1 1 1 1 1 1 1 1 1 1 1 1 1 0 0 0 0 0 0 0 0 0 0 0 1 1 1 1 1 1
0 0 0 0 1 1 1 1 1 1 1 1 1 1 1 1 1 1 1 1 2 1 1 1 1 1 0 0 0 0 0 0 0 0 0 0 0 1 1 1 1 1 1
0 0 0 0 1 1 1 1 1 1 1 1 1 1 1 1 1 1 1 1 1 1 1 1 1 1 0 0 0 0 0 0 0 0 0 0 0 1 1 1 1 1 1
0 0 0 0 1 1 1 1 2 1 1 1 1 1 1 1 1 1 1 1 1 1 1 1 1 1 1 0 0 0 0 0 0 0 0 0 0 1 1 1 1 1 1
0 0 0 0 1 1 1 1 1 1 1 1 1 1 1 1 1 1 1 1 1 1 1 1 1 1 1 0 0 0 0 0 0 0 0 0 0 1 1 1 1 1 1
1 0 0 0 0 0 1 1 1 1 1 1 1 1 1 1 1 1 1 1 1 1 1 1 1 1 1 0 0 0 0 0 0 0 0 0 0 1 1 1 1 1 1
1 1 0 0 0 0 0 0 0 0 0 0 0 0 0 0 0 0 0 0 1 1 2 1 1 1 1 0 0 0 0 0 0 0 0 0 0 1 1 1 1 1 1
1 1 1 1 0 0 0 0 0 0 0 0 0 0 0 0 0 0 0 0 1 1 1 1 1 1 1 0 0 0 0 0 0 0 0 0 1 1 1 0 1 1 1
1 1 1 1 1 0 0 0 0 0 0 0 0 0 0 0 0 0 0 0 1 1 1 1 0 1 0 0 0 0 0 0 0 0 0 0 1 1 1 0 1 1 1
1 1 1 1 1 0 0 0 0 0 0 0 0 0 0 0 0 0 0 1 1 0 0 0 0 0 0 0 0 0 0 0 0 0 0 0 1 1 1 1 0 1 1
1 1 1 1 1 0 0 0 0 0 0 0 0 0 0 0 0 0 1 1 0 0 0 0 0 0 0 0 0 0 0 0 0 0 0 0 1 1 1 1 1 0 1
1 1 1 1 1 0 0 0 0 0 0 0 0 0 0 0 0 1 1 1 0 0 0 0 0 0 0 0 0 0 0 0 0 0 0 0 0 1 1 1 1 0 0
1 1 1 1 1 0 0 0 0 0 0 0 0 0 0 1 1 1 1 1 0 0 0 0 0 0 0 0 0 0 0 0 0 0 0 0 0 1 1 1 1 1 0
0 1 1 1 1 0 0 0 0 0 0 0 0 0 1 1 1 1 1 1 0 0 0 0 0 0 0 0 0 0 0 0 0 0 0 0 1 1 1 1 1 1 0
0 0 1 1 1 1 0 0 0 0 0 0 0 0 1 1 1 1 1 1 0 0 0 0 0 0 0 0 0 0 0 0 0 0 0 1 1 1 1 1 1 0 0
1 1 1 1 1 1 0 0 0 0 0 0 1 1 1 1 1 1 1 1 1 0 0 0 0 0 0 0 0 1 0 0 0 0 0 1 1 1 1 0 0 0 0
1 1 1 1 1 1 1 0 0 0 0 1 1 1 1 0 1 1 1 1 0 0 0 0 0 0 0 0 0 0 0 0 0 0 0 1 1 1 1 0 0 0 0
1 1 1 1 1 1 1 0 0 1 1 1 1 1 1 0 0 0 0 0 0 0 0 0 0 0 0 0 0 0 0 0 0 0 0 1 1 1 1 0 0 0 0
1 1 1 1 1 1 1 1 1 1 1 1 1 1 1 0 0 0 0 0 0 0 0 0 0 0 0 0 0 0 0 0 0 0 0 1 1 1 0 0 0 0 0
1 1 1 1 1 1 1 1 1 1 1 1 1 1 1 0 0 0 0 0 0 0 0 0 0 0 0 0 0 0 0 0 0 0 0 0 0 1 0 0 0 0 0
1 1 1 1 1 1 1 1 1 1 1 1 1 1 0 0 0 0 0 0 0 0 0 0 0 0 0 0 0 0 0 0 0 0 0 0 0 0 0 0 0 0 0
1 1 1 1 1 1 1 1 1 1 1 1 1 1 0 0 0 0 0 0 0 0 0 0 0 0 0 0 0 0 0 0 0 0 0 0 0 0 0 0 0 0 0
1 1 1 1 1 1 1 1 0 0 1 1 1 1 0 0 0 0 0 0 0 0 0 0 0 0 0 0 0 0 0 0 0 0 0 0 0 0 0 0 0 0 0
Wind_Speed
3 4 7 7 9 10 11 11 10 10 10 9 9 9 9 9 9 9 10 9 9 9 10 10 10 10 10 11 11 11 11 10 11 10 10 9 9 10 10 10 8 6 10
5 6 7 8 9 10 10 10 10 9 9 9 9 8 8 8 8 8 9 9 9 9 9 9 9 10 10 10 10 10 10 10 10 10 10 8 8 9 9 9 8 6 9
7 6 7 8 9 10 10 9 9 9 9 8 8 8 8 8 8 8 8 8 8 8 8 8 8 9 9 9 9 9 9 10 10 10 9 5 5 8 9 9 8 8 8
7 6 6 8 9 9 9 9 9 8 8 8 8 8 7 7 7 8 8 8 7 7 7 7 8 8 8 8 8 8 8 9 9 8 5 4 3 6 8 8 8 8 7
6 5 5 8 9 9 9 8 8 7 7 7 7 7 7 6 7 7 7 7 7 6 6 6 7 7 7 7 7 7 8 8 9 7 4 3 3 5 7 7 8 8 8
5 4 5 8 8 8 8 8 8 7 7 7 6 6 6 6 6 6 6 6 6 5 5 5 6 6 6 6 6 7 7 8 7 4 3 3 2 5 7 7 7 7 7
5 4 5 6 7 8 8 8 7 7 6 6 6 5 5 5 6 6 6 6 5 5 5 5 6 6 5 5 5 6 6 7 5 3 3 2 2 5 6 6 6 6 6
5 4 4 5 5 6 7 7 6 6 6 5 5 4 4 5 5 5 5 5 5 5 5 5 5 5 5 5 5 5 6 5 5 3 2 2 3 5 5 5 5 5 5
5 4 3 3 3 4 5 5 5 5 5 4 4 4 3 3 4 4 4 4 4 4 4 4 4 4 4 4 4 5 5 5 3 2 2 1 2 3 4 4 4 4 4
4 3 3 2 2 2 3 4 4 4 4 4 3 3 3 3 3 3 2 3 4 4 3 3 3 3 3 3 3 3 4 4 2 1 1 1 1 2 3 3 3 3 3
3 3 2 2 2 2 2 3 3 4 3 3 2 3 2 1 1 1 2 2 3 3 3 3 2 2 2 2 3 3 2 1 1 1 1 0 0 1 1 1 2 2 2
3 2 2 3 2 2 2 2 2 2 2 2 1 2 1 1 1 1 2 2 2 2 2 2 1 1 1 1 1 1 1 1 1 0 1 1 1 0 0 0 1 1 1
4 3 3 3 3 3 2 2 1 1 1 1 2 2 1 1 1 1 1 1 1 1 1 1 1 1 1 1 0 0 0 0 0 1 1 1 1 1 1 1 1 1 1
4 4 3 3 3 2 2 2 2 1 1 1 2 2 2 1 1 1 1 1 1 0 0 0 0 1 1 1 1 1 1 1 1 1 1 1 2 2 1 1 2 2 2
4 4 4 4 3 3 2 2 2 2 2 2 2 2 2 2 2 1 1 1 1 1 1 1 1 1 1 1 1 2 2 2 2 1 1 1 2 2 2 2 2 3 2
4 4 4 4 4 3 3 2 2 2 2 2 2 2 3 2 2 2 1 1 1 1 1 1 1 2 2 2 2 2 2 2 2 2 1 1 2 2 3 3 3 3 3
4 3 3 4 4 4 3 3 2 2 2 2 2 2 2 2 2 2 2 2 1 1 1 1 0 0 1 1 2 2 2 2 2 2 2 1 1 2 2 3 3 4 4
3 3 3 3 3 3 3 2 2 2 2 2 2 1 2 2 2 2 2 2 1 1 1 1 1 0 1 1 2 2 2 1 2 2 2 1 1 1 1 2 4 4 5
4 4 4 3 4 3 3 2 2 2 2 2 2 2 2 2 2 2 2 1 1 1 1 1 1 1 1 1 1 2 2 2 2 2 2 2 2 1 1 2 3 4 5
3 3 3 3 3 3 2 1 1 1 1 1 2 2 2 2 2 2 1 1 1 1 1 0 1 1 1 1 1 2 2 2 1 2 2 2 2 2 2 1 1 3 5
3 3 3 3 3 2 2 2 1 1 1 1 1 1 2 2 2 2 1 1 1 2 2 2 1 0 0 0 0 1 2 2 2 2 2 2 2 2 1 2 1 1 2
3 3 3 3 3 3 3 2 2 1 1 1 1 1 2 2 2 2 2 2 2 1 1 1 1 1 1 1 1 1 1 2 2 2 2 2 2 1 1 2 2 2 1
3 4 3 3 3 3 3 2 1 1 1 0 1 1 2 2 2 2 2 2 2 2 2 2 2 2 2 2 1 2 2 3 2 2 2 2 2 2 2 2 2 2 2
3 3 3 3 3 2 3 3 3 2 2 3 2 2 2 2 2 2 2 2 2 2 2 2 2 2 3 2 1 1 2 2 2 2 2 2 2 3 3 3 3 3 3
2 2 2 2 2 2 2 3 4 3 2 1 1 2 2 2 2 2 2 2 2 2 2 2 2 2 2 3 2 1 1 1 1 2 3 3 2 3 3 3 3 3 3
1 1 1 1 1 1 2 2 3 3 3 2 2 2 2 1 2 2 2 2 2 2 2 3 3 3 2 3 3 2 2 2 3 3 4 3 4 3 3 2 3 3 3
Wind_Direction
172 176 171 149 142 137 134 130 126 125 122 119 118 114 110 108 105 103 101 99 97 95 91 86 83 81 77 73 71 68 65 61 58 57 58 63 71 75 72 69 66 63 71
163 169 166 152 142 136 132 130 129 128 127 124 121 119 117 113 109 108 106 102 100 98 95 91 87 83 79 74 71 69 65 61 57 57 54 52 63 72 71 70 72 72 70
149 161 162 148 141 138 136 133 131 131 130 130 129 128 125 123 118 113 109 107 104 102 100 96 92 86 80 75 72 69 66 61 58 54 47 34 47 69 70 68 70 70 69
149 153 156 145 141 141 140 140 139 137 134 133 133 133 131 128 126 119 114 111 108 105 102 99 96 89 81 76 71 69 67 60 58 52 44 27 27 66 70 68 66 66 68
137 144 151 146 144 144 144 145 144 143 140 137 137 138 138 134 130 125 120 117 113 110 109 106 101 93 84 77 70 70 66 60 56 53 44 27 22 64 69 69 66 63 62
131 132 145 146 146 145 148 148 148 147 144 141 139 142 140 137 134 130 125 121 116 115 114 112 106 97 89 81 74 71 65 62 56 52 40 25 20 64 68 69 69 64 58
134 131 141 143 149 148 147 151 151 149 147 144 143 141 145 141 139 136 131 127 120 119 119 114 109 106 99 88 81 73 63 58 59 50 38 22 38 62 63 64 69 66 58
135 133 137 143 147 152 151 148 149 147 145 142 141 141 140 141 141 139 136 133 129 127 127 122 119 118 106 94 86 74 58 53 58 47 29 16 47 66 66 63 67 65 61
118 118 120 132 142 147 147 144 142 141 143 139 137 137 129 124 127 130 135 140 138 134 132 128 128 122 112 101 91 78 62 53 58 46 25 11 47 69 71 62 64 67 61
106 109 109 112 123 133 141 140 137 138 143 143 136 122 119 118 117 114 126 143 148 139 136 136 132 127 115 106 94 76 63 56 56 34 3 334 51 79 75 62 53 60 55
114 120 124 128 130 135 142 141 137 136 137 137 130 120 109 101 108 112 117 138 160 157 149 145 141 118 100 89 75 65 57 71 74 15 320 309 169 114 91 58 33 38 47
165 163 158 156 151 143 144 122 127 131 131 121 117 124 114 116 122 113 109 118 131 139 138 132 129 94 72 73 54 48 67 71 90 320 299 287 230 221 128 44 345 350 22
179 174 174 171 168 156 145 140 144 135 132 128 135 137 127 113 99 75 84 88 90 97 94 86 62 94 123 122 126 133 126 70 266 290 295 282 257 260 254 252 271 304 322
177 187 183 169 163 163 152 153 158 151 152 151 161 153 142 142 148 157 144 133 125 123 146 146 165 182 179 179 176 170 191 224 219 258 287 288 280 272 271 270 270 287 290
182 187 187 174 170 166 155 163 159 167 170 168 165 162 155 162 176 175 177 165 157 153 162 212 212 206 209 209 204 194 208 219 215 219 262 288 287 280 272 279 276 274 288
190 190 187 178 176 171 173 173 170 166 171 171 173 179 172 170 177 179 183 184 176 182 190 204 232 218 223 217 215 207 209 211 216 218 217 263 291 295 288 282 285 282 282
189 183 183 184 176 176 178 179 174 173 168 178 187 185 181 176 177 179 187 199 201 195 185 164 255 271 254 237 229 225 221 210 214 222 222 225 249 300 307 297 290 289 286
176 177 184 183 178 182 178 175 174 176 177 186 183 182 188 180 174 177 187 209 202 172 173 168 169 238 258 266 271 256 235 212 220 225 222 217 217 239 302 313 311 298 295
179 181 182 182 180 184 180 176 178 175 179 187 184 181 187 172 174 180 191 205 179 164 186 196 223 212 240 242 259 275 258 231 226 227 220 216 216 207 219 285 304 307 302
174 178 178 176 179 173 159 149 148 152 186 191 193 197 188 182 184 182 187 192 167 163 193 196 235 272 232 231 268 290 276 251 227 212 228 233 224 222 230 236 265 295 293
164 169 176 172 179 164 163 173 181 208 213 219 223 206 192 193 189 176 180 183 184 199 208 189 187 229 254 187 55 317 306 273 238 232 230 230 234 235 227 231 240 261 285
184 185 189 186 184 185 188 184 190 184 204 215 221 214 203 198 205 189 184 190 197 210 205 201 177 184 246 192 157 169 294 302 280 247 229 228 237 238 242 247 235 241 264
192 198 201 198 193 195 182 154 113 90 63 149 225 221 228 207 201 199 193 189 202 207 215 215 199 187 218 248 204 180 193 234 284 281 245 238 238 239 246 248 241 243 249
207 207 210 196 187 188 178 174 171 182 203 216 212 218 233 219 209 199 195 196 200 213 226 232 226 211 194 219 245 237 227 195 198 278 292 266 246 246 242 244 249 245 239
194 192 203 186 189 183 181 184 188 196 213 219 205 208 228 229 217 206 199 200 208 215 223 232 240 228 214 211 209 210 220 240 208 208 264 283 280 252 239 234 235 240 242
118 135 169 171 198 176 177 188 196 202 194 199 215 216 230 242 236 214 207 207 212 215 221 228 226 225 236 231 221 208 203 203 213 210 232 259 272 275 258 242 231 237 242